Year,Month,Day,Hour,Minute,Value (Times are PST for temperature in C)
2018,04,01,00,00,9.00
2018,04,01,00,01,9.10
2018,04,01,00,02,9.10
2018,04,01,00,03,9.10
2018,04,01,00,04,9.00
2018,04,01,00,05,9.00
2018,04,01,00,06,9.00
2018,04,01,00,07,9.00
2018,04,01,00,08,9.00
2018,04,01,00,09,9.00
2018,04,01,00,10,9.00
2018,04,01,00,11,9.00
2018,04,01,00,12,9.10
2018,04,01,00,13,9.00
2018,04,01,00,14,9.00
2018,04,01,00,15,9.00
2018,04,01,00,16,9.00
2018,04,01,00,17,9.00
2018,04,01,00,18,9.00
2018,04,01,00,19,9.00
2018,04,01,00,20,9.00
2018,04,01,00,21,9.00
2018,04,01,00,22,9.00
2018,04,01,00,23,9.00
2018,04,01,00,24,9.00
2018,04,01,00,25,9.00
2018,04,01,00,26,9.00
2018,04,01,00,27,9.00
2018,04,01,00,28,9.00
2018,04,01,00,29,9.00
2018,04,01,00,30,9.00
2018,04,01,00,31,9.00
2018,04,01,00,32,9.00
2018,04,01,00,33,9.00
2018,04,01,00,34,9.00
2018,04,01,00,35,9.00
2018,04,01,00,36,9.00
2018,04,01,00,37,9.00
2018,04,01,00,38,9.00
2018,04,01,00,39,9.00
2018,04,01,00,40,9.00
2018,04,01,00,41,9.00
2018,04,01,00,42,9.00
2018,04,01,00,43,9.00
2018,04,01,00,44,9.00
2018,04,01,00,45,9.00
2018,04,01,00,46,9.00
2018,04,01,00,47,8.90
2018,04,01,00,48,8.90
2018,04,01,00,49,8.90
2018,04,01,00,50,8.90
2018,04,01,00,51,8.90
2018,04,01,00,52,8.90
2018,04,01,00,53,8.90
2018,04,01,00,54,8.90
2018,04,01,00,55,8.90
2018,04,01,00,56,8.90
2018,04,01,00,57,8.90
2018,04,01,00,58,8.90
2018,04,01,00,59,8.90
2018,04,01,01,00,8.90
2018,04,01,01,01,8.80
2018,04,01,01,02,8.80
2018,04,01,01,03,8.90
2018,04,01,01,04,8.90
2018,04,01,01,05,8.80
2018,04,01,01,06,8.80
2018,04,01,01,07,8.80
2018,04,01,01,08,8.80
2018,04,01,01,09,8.80
2018,04,01,01,10,8.80
2018,04,01,01,11,8.80
2018,04,01,01,12,8.80
2018,04,01,01,13,8.80
2018,04,01,01,14,8.80
2018,04,01,01,15,8.80
2018,04,01,01,16,8.80
2018,04,01,01,17,8.80
2018,04,01,01,18,8.80
2018,04,01,01,19,8.80
2018,04,01,01,20,8.80
2018,04,01,01,21,8.80
2018,04,01,01,22,8.80
2018,04,01,01,23,8.80
2018,04,01,01,24,8.80
2018,04,01,01,25,8.80
2018,04,01,01,26,8.80
2018,04,01,01,27,8.80
2018,04,01,01,28,8.80
2018,04,01,01,29,8.80
2018,04,01,01,30,8.80
2018,04,01,01,31,8.80
2018,04,01,01,32,8.80
2018,04,01,01,33,8.80
2018,04,01,01,34,8.80
2018,04,01,01,35,8.80
2018,04,01,01,36,8.80
2018,04,01,01,37,8.80
2018,04,01,01,38,8.80
2018,04,01,01,39,8.80
2018,04,01,01,40,8.80
2018,04,01,01,41,8.70
2018,04,01,01,42,8.70
2018,04,01,01,43,8.70
2018,04,01,01,44,8.70
2018,04,01,01,45,8.70
2018,04,01,01,46,8.60
2018,04,01,01,47,8.60
2018,04,01,01,48,8.60
2018,04,01,01,49,8.60
2018,04,01,01,50,8.60
2018,04,01,01,51,8.50
2018,04,01,01,52,8.50
2018,04,01,01,53,8.50
2018,04,01,01,54,8.50
2018,04,01,01,55,8.50
2018,04,01,01,56,8.40
2018,04,01,01,57,8.50
2018,04,01,01,58,8.40
2018,04,01,01,59,8.40
2018,04,01,02,00,8.40
2018,04,01,02,01,8.40
2018,04,01,02,02,8.40
2018,04,01,02,03,8.40
2018,04,01,02,04,8.40
2018,04,01,02,05,8.40
2018,04,01,02,06,8.40
2018,04,01,02,07,8.40
2018,04,01,02,08,8.40
2018,04,01,02,09,8.40
2018,04,01,02,10,8.40
2018,04,01,02,11,8.40
2018,04,01,02,12,8.40
2018,04,01,02,13,8.40
2018,04,01,02,14,8.40
2018,04,01,02,15,8.40
2018,04,01,02,16,8.40
2018,04,01,02,17,8.40
2018,04,01,02,18,8.40
2018,04,01,02,19,8.40
2018,04,01,02,20,8.40
2018,04,01,02,21,8.40
2018,04,01,02,22,8.40
2018,04,01,02,23,8.40
2018,04,01,02,24,8.30
2018,04,01,02,25,8.30
2018,04,01,02,26,8.40
2018,04,01,02,27,8.30
2018,04,01,02,28,8.30
2018,04,01,02,29,8.40
2018,04,01,02,30,8.40
2018,04,01,02,31,8.40
2018,04,01,02,32,8.40
2018,04,01,02,33,8.40
2018,04,01,02,34,8.40
2018,04,01,02,35,8.40
2018,04,01,02,36,8.40
2018,04,01,02,37,8.40
2018,04,01,02,38,8.30
2018,04,01,02,39,8.30
2018,04,01,02,40,8.30
2018,04,01,02,41,8.30
2018,04,01,02,42,8.30
2018,04,01,02,43,8.30
2018,04,01,02,44,8.30
2018,04,01,02,45,8.30
2018,04,01,02,46,8.30
2018,04,01,02,47,8.30
2018,04,01,02,48,8.30
2018,04,01,02,49,8.30
2018,04,01,02,50,8.30
2018,04,01,02,51,8.30
2018,04,01,02,52,8.30
2018,04,01,02,53,8.30
2018,04,01,02,54,8.30
2018,04,01,02,55,8.30
2018,04,01,02,56,8.30
2018,04,01,02,57,8.30
2018,04,01,02,58,8.30
2018,04,01,02,59,8.30
2018,04,01,03,00,8.30
2018,04,01,03,01,8.30
2018,04,01,03,02,8.30
2018,04,01,03,03,8.30
2018,04,01,03,04,8.30
2018,04,01,03,05,8.30
2018,04,01,03,06,8.30
2018,04,01,03,07,8.30
2018,04,01,03,08,8.30
2018,04,01,03,09,8.30
2018,04,01,03,10,8.30
2018,04,01,03,11,8.30
2018,04,01,03,12,8.30
2018,04,01,03,13,8.30
2018,04,01,03,14,8.30
2018,04,01,03,15,8.30
2018,04,01,03,16,8.30
2018,04,01,03,17,8.30
2018,04,01,03,18,8.30
2018,04,01,03,19,8.30
2018,04,01,03,20,8.30
2018,04,01,03,21,8.30
2018,04,01,03,22,8.30
2018,04,01,03,23,8.30
2018,04,01,03,24,8.30
2018,04,01,03,25,8.30
2018,04,01,03,26,8.30
2018,04,01,03,27,8.30
2018,04,01,03,28,8.30
2018,04,01,03,29,8.30
2018,04,01,03,30,8.30
2018,04,01,03,31,8.30
2018,04,01,03,32,8.30
2018,04,01,03,33,8.30
2018,04,01,03,34,8.30
2018,04,01,03,35,8.30
2018,04,01,03,36,8.30
2018,04,01,03,37,8.30
2018,04,01,03,38,8.30
2018,04,01,03,39,8.30
2018,04,01,03,40,8.30
2018,04,01,03,41,8.30
2018,04,01,03,42,8.30
2018,04,01,03,43,8.30
2018,04,01,03,44,8.30
2018,04,01,03,45,8.30
2018,04,01,03,46,8.30
2018,04,01,03,47,8.30
2018,04,01,03,48,8.30
2018,04,01,03,49,8.30
2018,04,01,03,50,8.30
2018,04,01,03,51,8.30
2018,04,01,03,52,8.30
2018,04,01,03,53,8.30
2018,04,01,03,54,8.30
2018,04,01,03,55,8.30
2018,04,01,03,56,8.30
2018,04,01,03,57,8.30
2018,04,01,03,58,8.30
2018,04,01,03,59,8.30
2018,04,01,04,00,8.30
2018,04,01,04,01,8.30
2018,04,01,04,02,8.30
2018,04,01,04,03,8.30
2018,04,01,04,04,8.30
2018,04,01,04,05,8.30
2018,04,01,04,06,8.30
2018,04,01,04,07,8.30
2018,04,01,04,08,8.30
2018,04,01,04,09,8.30
2018,04,01,04,10,8.30
2018,04,01,04,11,8.30
2018,04,01,04,12,8.30
2018,04,01,04,13,8.30
2018,04,01,04,14,8.30
2018,04,01,04,15,8.30
2018,04,01,04,16,8.30
2018,04,01,04,17,8.30
2018,04,01,04,18,8.30
2018,04,01,04,19,8.30
2018,04,01,04,20,8.30
2018,04,01,04,21,8.30
2018,04,01,04,22,8.30
2018,04,01,04,23,8.30
2018,04,01,04,24,8.30
2018,04,01,04,25,8.30
2018,04,01,04,26,8.30
2018,04,01,04,27,8.30
2018,04,01,04,28,8.30
2018,04,01,04,29,8.30
2018,04,01,04,30,8.30
2018,04,01,04,31,8.30
2018,04,01,04,32,8.30
2018,04,01,04,33,8.30
2018,04,01,04,34,8.30
2018,04,01,04,35,8.30
2018,04,01,04,36,8.30
2018,04,01,04,37,8.30
2018,04,01,04,38,8.30
2018,04,01,04,39,8.30
2018,04,01,04,40,8.30
2018,04,01,04,41,8.30
2018,04,01,04,42,8.30
2018,04,01,04,43,8.30
2018,04,01,04,44,8.30
2018,04,01,04,45,8.30
2018,04,01,04,46,8.30
2018,04,01,04,47,8.30
2018,04,01,04,48,8.30
2018,04,01,04,49,8.30
2018,04,01,04,50,8.30
2018,04,01,04,51,8.30
2018,04,01,04,52,8.30
2018,04,01,04,53,8.30
2018,04,01,04,54,8.30
2018,04,01,04,55,8.30
2018,04,01,04,56,8.30
2018,04,01,04,57,8.30
2018,04,01,04,58,8.30
2018,04,01,04,59,8.30
2018,04,01,05,00,8.30
2018,04,01,05,01,8.30
2018,04,01,05,02,8.30
2018,04,01,05,03,8.30
2018,04,01,05,04,8.20
2018,04,01,05,05,8.20
2018,04,01,05,06,8.20
2018,04,01,05,07,8.30
2018,04,01,05,08,8.30
2018,04,01,05,09,8.30
2018,04,01,05,10,8.30
2018,04,01,05,11,8.30
2018,04,01,05,12,8.30
2018,04,01,05,13,8.30
2018,04,01,05,14,8.30
2018,04,01,05,15,8.30
2018,04,01,05,16,8.30
2018,04,01,05,17,8.30
2018,04,01,05,18,8.30
2018,04,01,05,19,8.30
2018,04,01,05,20,8.30
2018,04,01,05,21,8.30
2018,04,01,05,22,8.30
2018,04,01,05,23,8.30
2018,04,01,05,24,8.30
2018,04,01,05,25,8.30
2018,04,01,05,26,8.30
2018,04,01,05,27,8.30
2018,04,01,05,28,8.30
2018,04,01,05,29,8.30
2018,04,01,05,30,8.30
2018,04,01,05,31,8.30
2018,04,01,05,32,8.30
2018,04,01,05,33,8.30
2018,04,01,05,34,8.30
2018,04,01,08,06,6.90
2018,04,01,08,07,6.90
2018,04,01,08,08,6.90
2018,04,01,08,09,6.90
2018,04,01,08,10,6.80
2018,04,01,08,11,6.80
2018,04,01,08,12,6.90
2018,04,01,08,13,6.90
2018,04,01,08,14,6.80
2018,04,01,08,15,6.80
2018,04,01,08,16,6.90
2018,04,01,08,17,6.80
2018,04,01,08,18,6.80
2018,04,01,08,19,6.80
2018,04,01,08,20,6.80
2018,04,01,08,21,6.80
2018,04,01,08,22,6.80
2018,04,01,08,23,6.80
2018,04,01,08,24,6.80
2018,04,01,08,25,6.80
2018,04,01,08,26,6.80
2018,04,01,08,27,6.80
2018,04,01,08,28,6.80
2018,04,01,08,29,6.80
2018,04,01,08,30,6.80
2018,04,01,08,31,6.80
2018,04,01,08,32,6.80
2018,04,01,08,33,6.80
2018,04,01,08,34,6.80
2018,04,01,08,35,6.80
2018,04,01,08,36,6.80
2018,04,01,08,37,6.80
2018,04,01,08,38,6.80
2018,04,01,08,39,6.80
2018,04,01,08,40,6.80
2018,04,01,08,41,6.80
2018,04,01,08,42,6.80
2018,04,01,08,43,6.80
2018,04,01,08,44,6.80
2018,04,01,08,45,6.80
2018,04,01,08,46,6.80
2018,04,01,08,47,6.80
2018,04,01,08,48,6.80
2018,04,01,08,49,6.70
2018,04,01,08,50,6.70
2018,04,01,08,51,6.80
2018,04,01,08,52,6.70
2018,04,01,08,53,6.70
2018,04,01,08,54,6.70
2018,04,01,08,55,6.70
2018,04,01,08,56,6.70
2018,04,01,08,57,6.70
2018,04,01,08,58,6.70
2018,04,01,08,59,6.70
2018,04,01,09,00,6.70
2018,04,01,09,01,6.70
2018,04,01,09,02,6.70
2018,04,01,09,03,6.70
2018,04,01,09,04,6.70
2018,04,01,09,05,6.70
2018,04,01,09,06,6.70
2018,04,01,09,07,6.70
2018,04,01,09,08,6.70
2018,04,01,09,09,6.70
2018,04,01,09,10,6.70
2018,04,01,09,11,6.70
2018,04,01,09,12,6.70
2018,04,01,09,13,6.70
2018,04,01,09,14,6.70
2018,04,01,09,15,6.70
2018,04,01,09,16,6.80
2018,04,01,09,17,6.80
2018,04,01,09,18,6.80
2018,04,01,09,19,6.80
2018,04,01,09,20,6.80
2018,04,01,09,21,6.80
2018,04,01,09,22,6.80
2018,04,01,09,23,6.80
2018,04,01,09,24,6.80
2018,04,01,09,25,6.80
2018,04,01,09,26,6.80
2018,04,01,09,27,6.80
2018,04,01,09,28,6.80
2018,04,01,09,29,6.70
2018,04,01,09,30,6.70
2018,04,01,09,31,6.80
2018,04,01,09,32,6.70
2018,04,01,09,33,6.70
2018,04,01,09,34,6.70
2018,04,01,09,35,6.80
2018,04,01,09,36,6.80
2018,04,01,09,37,6.70
2018,04,01,09,38,6.70
2018,04,01,09,39,6.70
2018,04,01,09,40,6.70
2018,04,01,09,41,6.70
2018,04,01,09,42,6.70
2018,04,01,09,43,6.70
2018,04,01,09,44,6.70
2018,04,01,09,45,6.70
2018,04,01,09,46,6.80
2018,04,01,09,47,6.80
2018,04,01,09,48,6.80
2018,04,01,09,49,6.80
2018,04,01,09,50,6.80
2018,04,01,09,51,6.80
2018,04,01,09,52,6.80
2018,04,01,09,53,6.70
2018,04,01,09,54,6.70
2018,04,01,09,55,6.70
2018,04,01,09,56,6.70
2018,04,01,09,57,6.70
2018,04,01,09,58,6.70
2018,04,01,09,59,6.70
2018,04,01,10,00,6.70
2018,04,01,10,01,6.80
2018,04,01,10,02,6.80
2018,04,01,10,03,6.80
2018,04,01,10,04,6.80
2018,04,01,10,05,6.80
2018,04,01,10,06,6.80
2018,04,01,10,07,6.80
2018,04,01,10,08,6.80
2018,04,01,10,09,6.80
2018,04,01,10,10,6.90
2018,04,01,10,11,6.90
2018,04,01,10,12,6.90
2018,04,01,10,13,7.00
2018,04,01,10,14,7.00
2018,04,01,10,15,7.00
2018,04,01,10,16,7.10
2018,04,01,10,17,7.10
2018,04,01,10,18,7.10
2018,04,01,10,19,7.10
2018,04,01,10,20,7.20
2018,04,01,10,21,7.20
2018,04,01,10,22,7.20
2018,04,01,10,23,7.20
2018,04,01,10,24,7.30
2018,04,01,10,25,7.30
2018,04,01,10,26,7.30
2018,04,01,10,27,7.30
2018,04,01,10,28,7.40
2018,04,01,10,29,7.40
2018,04,01,10,30,7.40
2018,04,01,10,31,7.40
2018,04,01,10,32,7.40
2018,04,01,10,33,7.40
2018,04,01,10,34,7.40
2018,04,01,10,35,7.50
2018,04,01,10,36,7.50
2018,04,01,10,37,7.60
2018,04,01,10,38,7.70
2018,04,01,10,39,7.70
2018,04,01,10,40,7.70
2018,04,01,10,41,7.80
2018,04,01,10,42,7.80
2018,04,01,10,43,7.80
2018,04,01,10,44,7.80
2018,04,01,10,45,7.80
2018,04,01,10,46,7.80
2018,04,01,10,47,7.90
2018,04,01,10,48,7.90
2018,04,01,10,49,7.90
2018,04,01,10,50,8.00
2018,04,01,10,51,8.00
2018,04,01,10,52,8.10
2018,04,01,10,53,8.10
2018,04,01,10,54,8.20
2018,04,01,10,55,8.20
2018,04,01,10,56,8.20
2018,04,01,10,57,8.20
2018,04,01,10,58,8.20
2018,04,01,10,59,8.20
2018,04,01,11,00,8.20
2018,04,01,11,01,8.20
2018,04,01,11,02,8.20
2018,04,01,11,03,8.20
2018,04,01,11,04,8.20
2018,04,01,11,05,8.20
2018,04,01,11,06,8.30
2018,04,01,11,07,8.30
2018,04,01,11,08,8.30
2018,04,01,11,09,8.40
2018,04,01,11,10,8.40
2018,04,01,11,11,8.40
2018,04,01,11,12,8.40
2018,04,01,11,13,8.40
2018,04,01,11,14,8.40
2018,04,01,11,15,8.40
2018,04,01,11,16,8.50
2018,04,01,11,17,8.50
2018,04,01,11,18,8.50
2018,04,01,11,19,8.40
2018,04,01,11,20,8.40
2018,04,01,11,21,8.40
2018,04,01,11,22,8.40
2018,04,01,11,23,8.40
2018,04,01,11,24,8.40
2018,04,01,11,25,8.40
2018,04,01,11,26,8.50
2018,04,01,11,27,8.50
2018,04,01,11,28,8.50
2018,04,01,11,29,8.50
2018,04,01,11,30,8.50
2018,04,01,11,31,8.50
2018,04,01,11,32,8.60
2018,04,01,11,33,8.50
2018,04,01,11,34,8.50
2018,04,01,11,35,8.50
2018,04,01,11,36,8.40
2018,04,01,11,37,8.40
2018,04,01,11,38,8.40
2018,04,01,11,39,8.40
2018,04,01,11,40,8.40
2018,04,01,11,41,8.40
2018,04,01,11,42,8.40
2018,04,01,11,43,8.40
2018,04,01,11,44,8.50
2018,04,01,11,45,8.50
2018,04,01,11,46,8.60
2018,04,01,11,47,8.60
2018,04,01,11,48,8.60
2018,04,01,11,49,8.40
2018,04,01,11,50,8.30
2018,04,01,11,51,8.00
2018,04,01,11,52,7.90
2018,04,01,11,53,7.80
2018,04,01,11,54,7.70
2018,04,01,11,55,7.60
2018,04,01,11,56,7.60
2018,04,01,11,57,7.60
2018,04,01,11,58,7.50
2018,04,01,11,59,7.50
2018,04,01,12,00,7.50
2018,04,01,12,01,7.50
2018,04,01,12,02,7.50
2018,04,01,12,03,7.50
2018,04,01,12,04,7.50
2018,04,01,12,05,7.50
2018,04,01,12,06,7.50
2018,04,01,12,07,7.40
2018,04,01,12,08,7.40
2018,04,01,12,09,7.40
2018,04,01,12,10,7.40
2018,04,01,12,11,7.50
2018,04,01,12,12,7.50
2018,04,01,12,13,7.50
2018,04,01,12,14,7.40
2018,04,01,12,15,7.40
2018,04,01,12,16,7.50
2018,04,01,12,17,7.50
2018,04,01,12,18,7.50
2018,04,01,12,19,7.60
2018,04,01,12,20,7.60
2018,04,01,12,21,7.60
2018,04,01,12,22,7.70
2018,04,01,12,23,7.70
2018,04,01,12,24,7.80
2018,04,01,12,25,7.80
2018,04,01,12,26,7.90
2018,04,01,12,27,7.90
2018,04,01,12,28,8.00
2018,04,01,12,29,8.00
2018,04,01,12,30,8.00
2018,04,01,12,31,8.00
2018,04,01,12,32,8.10
2018,04,01,12,33,8.10
2018,04,01,12,34,8.10
2018,04,01,12,35,8.20
2018,04,01,12,36,8.20
2018,04,01,12,37,8.20
2018,04,01,12,38,8.30
2018,04,01,12,39,8.30
2018,04,01,12,40,8.40
2018,04,01,12,41,8.40
2018,04,01,12,42,8.40
2018,04,01,12,43,8.50
2018,04,01,12,44,8.50
2018,04,01,12,45,8.50
2018,04,01,12,46,8.60
2018,04,01,12,47,8.60
2018,04,01,12,48,8.70
2018,04,01,12,49,8.70
2018,04,01,12,50,8.70
2018,04,01,12,51,8.70
2018,04,01,12,52,8.70
2018,04,01,12,53,8.70
2018,04,01,12,54,8.70
2018,04,01,12,55,8.80
2018,04,01,12,56,8.80
2018,04,01,12,57,8.80
2018,04,01,12,58,8.90
2018,04,01,12,59,8.90
2018,04,01,13,00,8.90
2018,04,01,13,01,8.90
2018,04,01,13,02,9.00
2018,04,01,13,03,9.00
2018,04,01,13,04,9.10
2018,04,01,13,05,9.10
2018,04,01,13,06,9.20
2018,04,01,13,07,9.20
2018,04,01,13,08,9.20
2018,04,01,13,09,9.20
2018,04,01,13,10,9.20
2018,04,01,13,11,9.20
2018,04,01,13,12,9.20
2018,04,01,13,13,9.10
2018,04,01,13,14,9.10
2018,04,01,13,15,9.10
2018,04,01,13,16,9.10
2018,04,01,13,17,9.10
2018,04,01,13,18,9.10
2018,04,01,13,19,9.10
2018,04,01,13,20,9.10
2018,04,01,13,21,9.10
2018,04,01,13,22,9.00
2018,04,01,13,23,8.90
2018,04,01,13,24,8.90
2018,04,01,13,25,8.90
2018,04,01,13,26,8.90
2018,04,01,13,27,9.00
2018,04,01,13,28,9.00
2018,04,01,13,29,9.10
2018,04,01,13,30,9.10
2018,04,01,13,31,9.20
2018,04,01,13,32,9.20
2018,04,01,13,33,9.10
2018,04,01,13,34,9.10
2018,04,01,13,35,9.10
2018,04,01,13,36,9.10
2018,04,01,13,37,9.10
2018,04,01,13,38,9.00
2018,04,01,13,39,9.00
2018,04,01,13,40,9.00
2018,04,01,13,41,9.00
2018,04,01,13,42,9.00
2018,04,01,13,43,9.00
2018,04,01,13,44,9.00
2018,04,01,13,45,9.10
2018,04,01,13,46,9.10
2018,04,01,13,47,9.10
2018,04,01,13,48,9.00
2018,04,01,13,49,8.90
2018,04,01,13,50,8.90
2018,04,01,13,51,9.00
2018,04,01,13,52,9.00
2018,04,01,13,53,9.00
2018,04,01,13,54,9.00
2018,04,01,13,55,9.10
2018,04,01,13,56,9.10
2018,04,01,13,57,9.00
2018,04,01,13,58,8.90
2018,04,01,13,59,8.90
2018,04,01,14,00,8.80
2018,04,01,14,01,8.80
2018,04,01,14,02,8.80
2018,04,01,14,03,8.80
2018,04,01,14,04,8.80
2018,04,01,14,05,8.90
2018,04,01,14,06,8.90
2018,04,01,14,07,8.90
2018,04,01,14,08,8.90
2018,04,01,14,09,9.00
2018,04,01,14,10,9.00
2018,04,01,14,11,9.00
2018,04,01,14,12,9.00
2018,04,01,14,13,9.10
2018,04,01,14,14,9.10
2018,04,01,14,15,9.10
2018,04,01,14,16,9.10
2018,04,01,14,17,9.10
2018,04,01,14,18,9.10
2018,04,01,14,19,9.10
2018,04,01,14,20,9.00
2018,04,01,14,21,9.00
2018,04,01,14,22,8.90
2018,04,01,14,23,8.90
2018,04,01,14,24,8.90
2018,04,01,14,25,8.80
2018,04,01,14,26,8.80
2018,04,01,14,27,8.80
2018,04,01,14,28,8.70
2018,04,01,14,29,8.80
2018,04,01,14,30,8.70
2018,04,01,14,31,8.70
2018,04,01,14,32,8.70
2018,04,01,14,33,8.70
2018,04,01,14,34,8.80
2018,04,01,14,35,8.80
2018,04,01,14,36,8.90
2018,04,01,14,37,8.90
2018,04,01,14,38,9.00
2018,04,01,14,39,9.00
2018,04,01,14,40,8.90
2018,04,01,14,41,8.90
2018,04,01,14,42,8.80
2018,04,01,14,43,8.80
2018,04,01,14,44,8.80
2018,04,01,14,45,8.80
2018,04,01,14,46,8.80
2018,04,01,14,47,8.80
2018,04,01,14,48,8.80
2018,04,01,14,49,8.80
2018,04,01,14,50,8.80
2018,04,01,14,51,8.90
2018,04,01,14,52,8.90
2018,04,01,14,53,8.90
2018,04,01,14,54,8.90
2018,04,01,14,55,8.90
2018,04,01,14,56,8.90
2018,04,01,14,57,8.80
2018,04,01,14,58,8.80
2018,04,01,14,59,8.80
2018,04,01,15,00,8.90
2018,04,01,15,01,8.90
2018,04,01,15,02,8.90
2018,04,01,15,03,8.90
2018,04,01,15,04,8.90
2018,04,01,15,05,8.80
2018,04,01,15,06,8.80
2018,04,01,15,07,8.80
2018,04,01,15,08,8.80
2018,04,01,15,09,8.80
2018,04,01,15,10,8.90
2018,04,01,15,11,8.90
2018,04,01,15,12,8.90
2018,04,01,15,13,8.90
2018,04,01,15,14,8.90
2018,04,01,15,15,8.90
2018,04,01,15,16,8.90
2018,04,01,15,17,8.90
2018,04,01,15,18,8.90
2018,04,01,15,19,8.90
2018,04,01,15,20,8.90
2018,04,01,15,21,8.90
2018,04,01,15,22,8.90
2018,04,01,15,23,8.90
2018,04,01,15,24,9.00
2018,04,01,15,25,9.00
2018,04,01,15,26,9.00
2018,04,01,15,27,9.00
2018,04,01,15,28,9.00
2018,04,01,15,29,9.00
2018,04,01,15,30,9.00
2018,04,01,15,31,8.90
2018,04,01,15,32,8.90
2018,04,01,15,33,8.90
2018,04,01,15,34,8.90
2018,04,01,15,35,8.90
2018,04,01,15,36,8.90
2018,04,01,15,37,8.90
2018,04,01,15,38,8.90
2018,04,01,15,39,8.90
2018,04,01,15,40,8.80
2018,04,01,15,41,8.80
2018,04,01,15,42,8.80
2018,04,01,15,43,8.80
2018,04,01,15,44,8.80
2018,04,01,15,45,8.80
2018,04,01,15,46,8.80
2018,04,01,15,47,8.80
2018,04,01,15,48,8.80
2018,04,01,15,49,8.80
2018,04,01,15,50,8.80
2018,04,01,15,51,8.80
2018,04,01,15,52,8.70
2018,04,01,15,53,8.70
2018,04,01,15,54,8.80
2018,04,01,15,55,8.80
2018,04,01,15,56,8.80
2018,04,01,15,57,8.80
2018,04,01,15,58,8.80
2018,04,01,15,59,8.80
2018,04,01,16,00,8.80
2018,04,01,16,01,8.70
2018,04,01,16,02,8.70
2018,04,01,16,03,8.80
2018,04,01,16,04,8.80
2018,04,01,16,05,8.80
2018,04,01,16,06,8.70
2018,04,01,16,07,8.70
2018,04,01,16,08,8.70
2018,04,01,16,09,8.80
2018,04,01,16,10,8.80
2018,04,01,16,11,8.80
2018,04,01,16,12,8.70
2018,04,01,16,13,8.70
2018,04,01,16,14,8.70
2018,04,01,16,15,8.60
2018,04,01,16,16,8.70
2018,04,01,16,17,8.70
2018,04,01,16,18,8.60
2018,04,01,16,19,8.60
2018,04,01,16,20,8.70
2018,04,01,16,21,8.70
2018,04,01,16,22,8.70
2018,04,01,16,23,8.60
2018,04,01,16,24,8.60
2018,04,01,16,25,8.60
2018,04,01,16,26,8.60
2018,04,01,16,27,8.70
2018,04,01,16,28,8.70
2018,04,01,16,29,8.70
2018,04,01,16,30,8.70
2018,04,01,16,31,8.70
2018,04,01,16,32,8.70
2018,04,01,16,33,8.70
2018,04,01,16,34,8.60
2018,04,01,16,35,8.60
2018,04,01,16,36,8.60
2018,04,01,16,37,8.60
2018,04,01,16,38,8.60
2018,04,01,16,39,8.60
2018,04,01,16,40,8.60
2018,04,01,16,41,8.60
2018,04,01,16,42,8.50
2018,04,01,16,43,8.50
2018,04,01,16,44,8.40
2018,04,01,16,45,8.40
2018,04,01,16,46,8.40
2018,04,01,16,47,8.40
2018,04,01,16,48,8.40
2018,04,01,16,49,8.40
2018,04,01,16,50,8.40
2018,04,01,16,51,8.40
2018,04,01,16,52,8.40
2018,04,01,16,53,8.30
2018,04,01,16,54,8.30
2018,04,01,16,55,8.30
2018,04,01,16,56,8.30
2018,04,01,16,57,8.30
2018,04,01,16,58,8.30
2018,04,01,16,59,8.30
2018,04,01,17,00,8.40
2018,04,01,17,01,8.40
2018,04,01,17,02,8.40
2018,04,01,17,03,8.40
2018,04,01,17,04,8.40
2018,04,01,17,05,8.40
2018,04,01,17,06,8.40
2018,04,01,17,07,8.30
2018,04,01,17,08,8.40
2018,04,01,17,09,8.30
2018,04,01,17,10,8.40
2018,04,01,17,11,8.40
2018,04,01,17,12,8.40
2018,04,01,17,13,8.40
2018,04,01,17,14,8.40
2018,04,01,17,15,8.40
2018,04,01,17,16,8.40
2018,04,01,17,17,8.40
2018,04,01,17,18,8.50
2018,04,01,17,19,8.50
2018,04,01,17,20,8.50
2018,04,01,17,21,8.50
2018,04,01,17,22,8.50
2018,04,01,17,23,8.40
2018,04,01,17,24,8.40
2018,04,01,17,25,8.50
2018,04,01,17,26,8.50
2018,04,01,17,27,8.50
2018,04,01,17,28,8.50
2018,04,01,17,29,8.40
2018,04,01,17,30,8.40
2018,04,01,17,31,8.30
2018,04,01,17,32,8.30
2018,04,01,17,33,8.20
2018,04,01,17,34,8.20
2018,04,01,17,35,8.20
2018,04,01,17,36,8.10
2018,04,01,17,37,8.10
2018,04,01,17,38,8.00
2018,04,01,17,39,8.00
2018,04,01,17,40,8.00
2018,04,01,17,41,8.00
2018,04,01,17,42,8.00
2018,04,01,17,43,8.00
2018,04,01,17,44,8.00
2018,04,01,17,45,8.00
2018,04,01,17,46,8.00
2018,04,01,17,47,8.00
2018,04,01,17,48,8.00
2018,04,01,17,49,7.90
2018,04,01,17,50,7.90
2018,04,01,17,51,7.90
2018,04,01,17,52,7.90
2018,04,01,17,53,8.00
2018,04,01,17,54,8.00
2018,04,01,17,55,8.00
2018,04,01,17,56,8.10
2018,04,01,17,57,8.10
2018,04,01,17,58,8.00
2018,04,01,17,59,8.00
2018,04,01,18,00,8.00
2018,04,01,18,01,8.00
2018,04,01,18,02,8.00
2018,04,01,18,03,8.00
2018,04,01,18,04,8.00
2018,04,01,18,05,8.00
2018,04,01,18,06,8.10
2018,04,01,18,07,8.10
2018,04,01,18,08,8.00
2018,04,01,18,09,8.00
2018,04,01,18,10,7.90
2018,04,01,18,11,7.90
2018,04,01,18,12,7.90
2018,04,01,18,13,7.80
2018,04,01,18,14,7.80
2018,04,01,18,15,7.80
2018,04,01,18,16,7.80
2018,04,01,18,17,7.80
2018,04,01,18,18,7.80
2018,04,01,18,19,7.70
2018,04,01,18,20,7.70
2018,04,01,18,21,7.70
2018,04,01,18,22,7.60
2018,04,01,18,23,7.60
2018,04,01,18,24,7.60
2018,04,01,18,25,7.60
2018,04,01,18,26,7.60
2018,04,01,18,27,7.60
2018,04,01,18,28,7.60
2018,04,01,18,29,7.70
2018,04,01,18,30,7.70
2018,04,01,18,31,7.60
2018,04,01,18,32,7.60
2018,04,01,18,33,7.50
2018,04,01,18,34,7.50
2018,04,01,18,35,7.40
2018,04,01,18,36,7.40
2018,04,01,18,37,7.40
2018,04,01,18,38,7.40
2018,04,01,18,39,7.40
2018,04,01,18,40,7.30
2018,04,01,18,41,7.30
2018,04,01,18,42,7.30
2018,04,01,18,43,7.20
2018,04,01,18,44,7.20
2018,04,01,18,45,7.20
2018,04,01,18,46,7.20
2018,04,01,18,47,7.20
2018,04,01,18,48,7.20
2018,04,01,18,49,7.20
2018,04,01,18,50,7.20
2018,04,01,18,51,7.20
2018,04,01,18,52,7.10
2018,04,01,18,53,7.20
2018,04,01,18,54,7.20
2018,04,01,18,55,7.20
2018,04,01,18,56,7.20
2018,04,01,18,57,7.20
2018,04,01,18,58,7.20
2018,04,01,18,59,7.10
2018,04,01,19,00,7.10
2018,04,01,19,01,7.10
2018,04,01,19,02,7.10
2018,04,01,19,03,7.10
2018,04,01,19,04,7.10
2018,04,01,19,05,7.10
2018,04,01,19,06,7.00
2018,04,01,19,07,7.00
2018,04,01,19,08,7.00
2018,04,01,19,09,7.00
2018,04,01,19,10,6.90
2018,04,01,19,11,6.90
2018,04,01,19,12,6.90
2018,04,01,19,13,6.80
2018,04,01,19,14,6.80
2018,04,01,19,15,6.80
2018,04,01,19,16,6.80
2018,04,01,19,17,6.80
2018,04,01,19,18,6.80
2018,04,01,19,19,6.80
2018,04,01,19,20,6.80
2018,04,01,19,21,6.70
2018,04,01,19,22,6.70
2018,04,01,19,23,6.70
2018,04,01,19,24,6.70
2018,04,01,19,25,6.70
2018,04,01,19,26,6.70
2018,04,01,19,27,6.60
2018,04,01,19,28,6.60
2018,04,01,19,29,6.60
2018,04,01,19,30,6.60
2018,04,01,19,31,6.60
2018,04,01,19,32,6.60
2018,04,01,19,33,6.60
2018,04,01,19,34,6.60
2018,04,01,19,35,6.50
2018,04,01,19,36,6.50
2018,04,01,19,37,6.40
2018,04,01,19,38,6.30
2018,04,01,19,39,6.30
2018,04,01,19,40,6.20
2018,04,01,19,41,6.00
2018,04,01,19,42,5.90
2018,04,01,19,43,5.70
2018,04,01,19,44,5.60
2018,04,01,19,45,5.50
2018,04,01,19,46,5.40
2018,04,01,19,47,5.30
2018,04,01,19,48,5.20
2018,04,01,19,49,5.20
2018,04,01,19,50,5.10
2018,04,01,19,51,5.10
2018,04,01,19,52,5.10
2018,04,01,19,53,5.10
2018,04,01,19,54,5.10
2018,04,01,19,55,5.10
2018,04,01,19,56,5.10
2018,04,01,19,57,5.10
2018,04,01,19,58,5.10
2018,04,01,19,59,5.10
2018,04,01,20,00,5.20
2018,04,01,20,01,5.20
2018,04,01,20,02,5.20
2018,04,01,20,03,5.20
2018,04,01,20,04,5.20
2018,04,01,20,05,5.20
2018,04,01,20,06,5.20
2018,04,01,20,07,5.20
2018,04,01,20,08,5.20
2018,04,01,20,09,5.30
2018,04,01,20,10,5.30
2018,04,01,20,11,5.30
2018,04,01,20,12,5.30
2018,04,01,20,13,5.30
2018,04,01,20,14,5.30
2018,04,01,20,15,5.30
2018,04,01,20,16,5.30
2018,04,01,20,17,5.40
2018,04,01,20,18,5.40
2018,04,01,20,19,5.40
2018,04,01,20,20,5.40
2018,04,01,20,21,5.40
2018,04,01,20,22,5.40
2018,04,01,20,23,5.50
2018,04,01,20,24,5.50
2018,04,01,20,25,5.50
2018,04,01,20,26,5.50
2018,04,01,20,27,5.50
2018,04,01,20,28,5.50
2018,04,01,20,29,5.60
2018,04,01,20,30,5.60
2018,04,01,20,31,5.60
2018,04,01,20,32,5.60
2018,04,01,20,33,5.60
2018,04,01,20,34,5.60
2018,04,01,20,35,5.60
2018,04,01,20,36,5.60
2018,04,01,20,37,5.60